1517493600.84,464,9.88,72106.0,-7.11,-26.93,-22.21,0,*5C
1517493602.05,465,9.88,72112.5,-7.11,-26.87,-22.21,0,*58
1517493603.27,466,9.88,72110.5,-7.11,-26.87,-22.17,0,*5E
1517493604.52,467,9.81,72106.3,-7.11,-26.77,-22.21,0,*55
1517493605.76,468,9.88,72110.0,-7.11,-26.71,-22.21,0,*5C
1517493607.0,469,9.88,72108.3,-7.11,-26.71,-22.17,0,*58
1517493608.25,470,9.81,72108.0,-7.11,-26.71,-22.31,0,*54
1517493609.44,471,9.88,72112.8,-7.11,-26.61,-22.37,0,*52
1517493610.66,472,9.88,72108.5,-7.09,-26.49,-22.27,0,*53
1517493611.91,473,9.88,72106.3,-7.09,-26.33,-22.11,0,*5A
1517493613.16,474,9.88,72102.3,-7.09,-26.17,-22.11,0,*5B
1517493614.38,475,9.88,72102.0,-7.09,-26.23,-22.11,0,*5D
1517493615.62,476,9.81,72098.3,-7.09,-26.17,-22.11,0,*59
1517493616.87,477,9.88,72100.5,-7.09,-26.33,-22.37,0,*5A
1517493618.07,478,9.81,72100.0,-7.11,-26.39,-22.37,0,*56
1517493619.26,479,9.88,72096.8,-7.11,-26.39,-22.53,0,*55
1517493620.48,480,9.81,72100.8,-7.11,-26.23,-22.47,0,*5D
1517493621.7,481,9.88,72104.3,-7.11,-26.23,-22.47,0,*5C
1517493622.89,482,9.81,72104.5,-7.11,-26.07,-22.37,0,*5E
1517493624.17,483,9.88,72108.3,-7.09,-25.97,-22.31,0,*5A
1517493625.44,484,9.88,72108.3,-7.09,-25.97,-22.31,0,*5D
1517493626.69,485,9.88,72104.8,-7.09,-25.87,-22.31,0,*5D
1517493627.94,486,9.88,72110.0,-7.09,-25.81,-22.27,0,*5F
1517493629.18,487,9.88,72108.8,-7.09,-25.81,-22.27,0,*5E
1517493630.4,488,9.81,72104.3,-7.09,-25.65,-22.27,0,*5B
1517493631.67,489,9.88,72108.3,-7.09,-25.81,-22.31,0,*57
1517493632.92,490,9.81,72110.0,-7.09,-25.71,-22.27,0,*57
1517493634.17,491,9.88,72106.8,-7.09,-25.87,-22.31,0,*58
1517493635.43,492,9.88,72108.3,-7.09,-26.03,-22.47,0,*55
1517493636.65,493,9.88,72110.0,-7.09,-26.03,-22.41,0,*52
1517493637.85,494,9.81,72106.5,-7.07,-26.03,-22.41,0,*5B
1517493639.1,495,9.88,72110.5,-7.09,-25.97,-22.27,0,*5A
1517493640.31,496,9.88,72114.0,-7.09,-26.07,-22.41,0,*53
1517493641.54,497,9.88,72114.5,-7.07,-26.23,-22.47,0,*5C
1517493642.75,498,9.88,72112.8,-7.09,-26.23,-22.41,0,*5B
1517493643.99,499,9.88,72112.0,-7.09,-26.17,-22.27,0,*5D
1517493645.25,500,9.81,72110.0,-7.07,-26.17,-22.31,0,*55
1517493646.47,501,9.81,72112.0,-7.07,-26.33,-22.27,0,*55
1517493647.73,502,9.81,72112.5,-7.07,-26.33,-22.17,0,*55
1517493648.93,503,9.81,72112.8,-7.07,-26.39,-22.27,0,*5D
1517493650.13,504,9.88,72116.3,-7.07,-26.49,-22.27,0,*5D
1517493651.36,505,9.81,72114.5,-7.07,-26.49,-22.31,0,*5B
1517493652.56,506,9.81,72112.5,-7.07,-26.65,-22.27,0,*51
1517493653.76,507,9.88,72120.8,-7.07,-26.65,-22.11,0,*55
1517493655.0,508,9.81,72116.0,-7.09,-26.71,-22.27,0,*54
1517493656.25,509,9.88,72118.8,-7.07,-26.71,-22.17,0,*58
1517493657.5,510,9.81,72112.0,-7.09,-26.49,-21.97,0,*5E
1517493658.74,511,9.88,72112.3,-7.07,-26.55,-21.83,0,*59
1517493659.99,512,9.81,72108.8,-7.09,-26.65,-21.83,0,*57
1517493661.23,513,9.81,72106.5,-7.09,-26.55,-21.63,0,*5B
1517493662.5,514,9.81,72110.0,-7.09,-26.55,-21.53,0,*5F
1517493663.77,515,9.81,72110.0,-7.09,-26.55,-21.53,0,*5E
1517493665.01,516,9.81,72108.3,-7.09,-26.55,-21.47,0,*58
1517493666.23,517,9.88,72108.8,-7.07,-26.55,-21.39,0,*5E
1517493667.45,518,9.81,72108.5,-7.07,-26.49,-21.33,0,*56
1517493668.67,519,9.88,72112.0,-7.07,-26.55,-21.39,0,*50
1517493669.91,520,9.81,72114.8,-7.09,-26.55,-21.39,0,*54
1517493671.16,521,9.81,72114.0,-7.07,-26.55,-21.33,0,*51
1517493672.4,522,9.81,72112.3,-7.09,-26.55,-21.17,0,*5A
1517493673.64,523,9.88,72114.5,-7.09,-26.23,-21.03,0,*5F
1517493674.86,524,9.88,72114.8,-7.09,-26.39,-21.09,0,*59
1517493676.14,525,9.81,72114.3,-7.09,-26.33,-21.03,0,*58
1517493677.42,526,9.81,72114.8,-7.09,-26.33,-21.03,0,*5B
1517493678.66,527,9.88,72118.0,-7.09,-26.23,-21.03,0,*5B
1517493679.91,528,9.81,72116.3,-7.09,-25.97,-20.73,0,*5E
1517493681.16,529,9.81,72116.8,-7.09,-25.81,-20.59,0,*50
1517493682.44,530,9.81,72118.3,-7.09,-25.71,-20.53,0,*5D
1517493683.66,531,9.81,72114.3,-7.11,-25.61,-20.49,0,*5F
1517493684.89,532,9.88,72118.8,-7.09,-25.49,-20.25,0,*55
1517493686.13,533,9.88,72116.3,-7.09,-25.39,-20.15,0,*50
1517493687.37,534,9.88,72116.0,-7.09,-25.19,-20.15,0,*55
1517493688.61,535,9.88,72116.5,-7.09,-25.03,-19.99,0,*51
1517493689.86,536,9.88,72118.0,-7.09,-24.83,-19.91,0,*53
1517493691.13,537,9.88,72118.5,-7.09,-24.83,-19.81,0,*53
1517493692.39,538,9.88,72118.8,-7.07,-24.71,-19.81,0,*5F
1517493693.63,539,9.88,72114.8,-7.07,-24.67,-19.81,0,*59
1517493694.9,540,9.88,72110.3,-7.09,-24.67,-19.65,0,*53
1517493696.12,541,9.81,72108.8,-7.09,-24.57,-19.51,0,*56
1517493697.37,542,9.88,72106.0,-7.09,-24.41,-19.51,0,*52
1517493698.65,543,9.88,72106.3,-7.09,-24.25,-19.31,0,*57
1517493699.93,544,9.81,72102.8,-7.09,-24.25,-19.23,0,*53
1517493701.18,545,9.88,72102.0,-7.07,-24.25,-19.31,0,*5F
1517493702.4,546,9.88,72102.3,-7.09,-24.05,-19.17,0,*54
1517493703.64,547,9.81,72106.0,-7.09,-23.95,-19.07,0,*5A
1517493704.91,548,9.81,72102.5,-7.09,-23.85,-18.93,0,*58
1517493706.13,549,9.88,72110.0,-7.07,-23.89,-18.93,0,*5B
1517493707.32,550,9.81,72108.0,-7.07,-23.89,-19.03,0,*5B
1517493708.56,551,9.88,72110.8,-7.07,-23.69,-18.93,0,*5C
1517493709.78,552,9.88,72114.8,-7.09,-23.59,-18.83,0,*53
1517493711.01,553,9.88,72112.0,-7.09,-23.69,-18.83,0,*51
1517493712.27,554,9.88,72112.8,-7.09,-23.69,-18.93,0,*57
1517493713.49,555,9.81,72110.0,-7.07,-23.59,-18.89,0,*50
1517493714.71,556,9.88,72114.0,-7.09,-23.39,-18.73,0,*5E
1517493715.95,557,9.88,72108.5,-7.09,-23.29,-18.69,0,*55
1517493717.19,558,9.81,72108.0,-7.07,-23.23,-18.59,0,*5D
1517493718.41,559,9.81,72108.3,-7.05,-23.09,-18.65,0,*59
1517493719.63,560,9.81,72108.3,-7.07,-23.09,-18.55,0,*52
1517493720.82,561,9.81,72106.8,-7.07,-22.87,-18.45,0,*55
1517493722.01,562,9.81,72104.8,-7.07,-22.87,-18.41,0,*52
1517493723.2,563,9.88,72106.0,-7.07,-22.87,-18.45,0,*57
1517493724.42,564,9.81,72102.8,-7.05,-22.67,-18.49,0,*50
1517493725.64,565,9.81,72106.8,-7.05,-22.67,-18.41,0,*59
1517493726.86,566,9.88,72108.5,-7.07,-22.67,-18.35,0,*5B
1517493728.08,567,9.81,72106.5,-7.07,-22.63,-18.31,0,*5A
1517493729.31,568,9.81,72108.0,-7.07,-22.57,-18.31,0,*52
1517493730.5,569,9.81,72110.3,-7.07,-22.41,-18.25,0,*51
1517493731.72,570,9.88,72110.8,-7.07,-22.47,-18.17,0,*5E
1517493732.91,571,9.88,72112.3,-7.07,-22.41,-18.25,0,*58
1517493734.09,572,9.81,72112.3,-7.07,-22.41,-18.25,0,*5B
1517493735.32,573,9.81,72116.3,-7.05,-22.37,-18.21,0,*5D
1517493736.54,574,9.81,72116.5,-7.05,-22.27,-18.11,0,*58
1517493737.76,575,9.88,72120.5,-7.03,-22.21,-18.07,0,*5E
1517493738.96,576,9.88,72122.3,-7.03,-22.41,-18.21,0,*5F
1517493740.15,577,9.88,72122.5,-7.03,-22.27,-18.21,0,*5E
1517493741.4,578,9.81,72122.3,-7.05,-22.21,-18.11,0,*52
1517493742.63,579,9.81,72120.8,-7.05,-22.11,-18.11,0,*50
1517493743.87,580,9.81,72118.0,-7.05,-22.21,-18.07,0,*52
1517493745.1,581,9.88,72118.5,-7.03,-22.21,-18.07,0,*55
1517493746.35,582,9.81,72114.3,-7.05,-22.21,-18.07,0,*50
1517493747.57,583,9.81,72116.0,-7.05,-22.11,-18.07,0,*52
1517493748.81,584,9.81,72108.3,-7.05,-22.07,-17.97,0,*54
1517493750.05,585,9.81,72112.0,-7.05,-22.07,-17.97,0,*55
1517493751.28,586,9.81,72108.0,-7.05,-21.93,-17.87,0,*59
1517493752.55,587,9.88,72114.0,-7.05,-21.97,-17.79,0,*5D
1517493753.79,588,9.88,72116.8,-7.05,-21.77,-17.63,0,*57
1517493755.04,589,9.88,72112.5,-7.05,-21.77,-17.63,0,*56
1517493756.25,590,9.88,72112.0,-7.05,-21.63,-17.49,0,*53
1517493757.5,591,9.81,72114.5,-7.05,-21.63,-17.59,0,*53
1517493758.71,592,9.81,72112.5,-7.05,-21.63,-17.49,0,*51
1517493759.96,593,9.81,72114.8,-7.05,-21.33,-17.35,0,*5E
1517493761.23,594,9.88,72118.5,-7.05,-21.03,-17.17,0,*5A
1517493762.49,595,9.81,72114.8,-7.03,-20.99,-17.07,0,*5E
1517493763.71,596,9.81,72114.5,-7.03,-21.13,-17.17,0,*5F
1517493764.95,597,9.88,72118.5,-7.03,-21.03,-17.17,0,*5F
1517493766.15,598,9.88,72120.3,-7.03,-21.13,-17.31,0,*55
1517493767.37,599,9.81,72116.8,-7.03,-21.03,-17.31,0,*55
1517493768.61,600,9.88,72118.5,-7.05,-20.89,-17.21,0,*52
1517493769.81,601,9.81,72116.0,-7.03,-20.89,-17.31,0,*54
1517493771.08,602,9.88,72116.3,-7.05,-20.79,-17.21,0,*5F
1517493772.32,603,9.88,72116.0,-7.03,-20.79,-17.17,0,*5D
1517493773.54,604,9.81,72112.5,-7.03,-20.69,-17.17,0,*5B
1517493774.82,605,9.81,72116.8,-7.05,-20.53,-17.07,0,*54
1517493776.07,606,9.88,72116.0,-7.03,-20.49,-17.07,0,*5A
1517493777.33,607,9.81,72112.5,-7.03,-20.53,-17.07,0,*50
1517493778.58,608,9.81,72118.3,-7.03,-20.53,-17.07,0,*5F
1517493779.82,609,9.88,72120.5,-7.01,-20.35,-16.97,0,*54
1517493781.03,610,9.88,72122.3,-6.99,-20.35,-16.89,0,*53
1517493782.25,611,9.88,72126.3,-7.01,-20.43,-16.89,0,*53
1517493783.5,612,9.81,72124.0,-6.99,-20.49,-17.03,0,*59
1517493784.75,613,9.81,72124.5,-7.01,-20.59,-17.17,0,*5C
1517493786.02,614,9.81,72126.0,-7.01,-20.49,-17.11,0,*5C
1517493787.28,615,9.81,72120.5,-7.01,-20.49,-17.17,0,*5B
1517493788.56,616,9.88,72122.0,-7.01,-20.49,-17.11,0,*5E
1517493789.8,617,9.81,72118.5,-6.99,-20.49,-17.11,0,*5F
1517493791.07,618,9.81,72116.0,-7.01,-20.49,-17.17,0,*56
1517493792.34,619,9.81,72114.8,-7.01,-20.49,-17.17,0,*57
1517493793.6,620,9.81,72120.0,-7.01,-20.49,-17.25,0,*5C
1517493794.87,621,9.81,72116.0,-7.01,-20.49,-17.25,0,*5D
1517493796.12,622,9.88,72116.5,-7.01,-20.43,-17.25,0,*54
1517493797.36,623,9.81,72114.3,-7.01,-20.49,-17.31,0,*5A
1517493798.58,624,9.88,72118.8,-7.01,-20.43,-17.31,0,*57
1517493799.81,625,9.81,72114.3,-7.03,-20.53,-17.35,0,*51
1517493801.08,626,9.81,72110.3,-7.01,-20.49,-17.41,0,*58
1517493802.32,627,9.81,72110.8,-7.01,-20.49,-17.31,0,*5E
1517493803.59,628,9.81,72108.3,-7.01,-20.49,-17.41,0,*56
1517493804.84,629,9.81,72112.8,-7.03,-20.53,-17.45,0,*5A
1517493806.09,630,9.88,72112.0,-7.01,-20.59,-17.55,0,*5B
1517493807.33,631,9.88,72112.3,-7.01,-20.63,-17.55,0,*53
1517493808.58,632,9.81,72110.5,-7.01,-20.73,-17.59,0,*5D
1517493809.82,633,9.81,72108.3,-7.01,-20.73,-17.55,0,*50
1517493811.01,634,9.81,72108.0,-7.03,-20.69,-17.49,0,*53
1517493812.26,635,9.88,72110.8,-7.01,-20.63,-17.45,0,*56
1517493813.51,636,9.88,72108.0,-7.01,-20.63,-17.55,0,*54
1517493814.73,637,9.88,72104.3,-7.03,-20.69,-17.59,0,*51
1517493815.92,638,9.88,72106.8,-7.03,-20.63,-17.49,0,*55
1517493817.17,639,9.81,72104.8,-7.01,-20.63,-17.45,0,*5A
1517493818.42,640,9.81,72110.0,-7.01,-20.63,-17.45,0,*54
1517493819.67,641,9.88,72112.0,-7.01,-20.63,-17.45,0,*55
1517493820.91,642,9.81,72114.0,-7.01,-20.73,-17.45,0,*57
1517493822.15,643,9.81,72114.0,-7.01,-20.73,-17.59,0,*5B
1517493823.4,644,9.81,72108.3,-6.95,-20.79,-17.63,0,*53
1517493824.62,645,9.81,72108.3,-7.03,-20.99,-17.87,0,*58
1517493825.85,646,9.81,72106.5,-7.03,-20.89,-17.79,0,*5B
1517493827.08,647,9.81,72106.5,-7.03,-20.83,-17.87,0,*51
1517493828.32,648,9.88,72110.5,-7.03,-20.83,-17.79,0,*5F
1517493829.55,649,9.81,72112.0,-7.03,-20.89,-17.97,0,*54
1517493830.8,650,9.81,72102.3,-7.03,-20.99,-17.97,0,*5D
1517493832.03,651,9.81,72104.0,-7.03,-20.99,-18.07,0,*5A
1517493833.28,652,9.88,72104.0,-7.05,-21.03,-18.07,0,*5D
1517493834.5,653,9.81,72102.5,-7.03,-21.03,-18.07,0,*5A
1517493835.73,654,9.81,72106.3,-7.03,-21.03,-18.07,0,*5D
1517493836.95,655,9.81,72106.3,-7.03,-21.03,-18.07,0,*5C
1517493838.15,656,9.81,72104.5,-7.03,-21.13,-18.07,0,*5E
1517493839.38,657,9.81,72104.0,-7.03,-21.03,-18.11,0,*59
1517493840.57,658,9.81,72098.8,-7.03,-21.17,-18.21,0,*50
1517493841.82,659,9.81,72102.8,-7.01,-21.23,-18.07,0,*50
1517493843.05,660,9.81,72098.8,-7.03,-21.33,-18.11,0,*5E
1517493844.3,661,9.81,72102.0,-7.05,-21.27,-18.11,0,*5C
1517493845.55,662,9.81,72104.0,-7.05,-21.27,-18.11,0,*5F
1517493846.77,663,9.88,72110.8,-7.03,-21.33,-18.21,0,*5E
1517493847.98,664,9.81,72104.3,-7.05,-21.43,-18.21,0,*58
1517493849.18,665,9.88,72108.8,-7.03,-21.43,-18.21,0,*5F
1517493850.4,666,9.81,72108.0,-7.05,-21.47,-18.21,0,*5E
1517493851.64,667,9.81,72112.8,-7.03,-21.57,-18.35,0,*5D
1517493852.83,668,9.81,72104.3,-7.03,-21.47,-18.25,0,*52
1517493854.05,669,9.81,72102.5,-7.05,-21.43,-18.21,0,*55
1517493855.27,670,9.81,72106.3,-7.05,-21.43,-18.21,0,*5D
1517493856.46,671,9.81,72114.3,-7.03,-21.43,-18.11,0,*59
1517493857.69,672,9.81,72112.0,-7.05,-21.43,-18.11,0,*5C
1517493858.91,673,9.81,72116.5,-7.03,-21.57,-18.21,0,*5D
1517493860.13,674,9.81,72120.0,-7.05,-21.43,-18.07,0,*5D
1517493861.4,675,9.88,72122.3,-7.05,-21.33,-17.97,0,*5D
1517493862.62,676,9.81,72118.5,-7.05,-21.17,-17.87,0,*59
1517493863.89,677,9.81,72122.5,-7.05,-21.27,-17.79,0,*5A
1517493865.16,678,9.88,72120.0,-7.05,-21.27,-17.79,0,*55
1517493866.38,679,9.81,72116.8,-7.05,-21.17,-17.73,0,*5D
1517493867.63,680,9.81,72122.8,-7.05,-21.27,-17.73,0,*58
1517493868.87,681,9.81,72116.5,-7.05,-21.17,-17.63,0,*5B
1517493870.09,682,9.81,72124.3,-7.07,-21.17,-17.63,0,*5A
1517493871.34,683,9.81,72126.3,-7.05,-21.17,-17.45,0,*5D
1517493872.59,684,9.81,72124.0,-7.05,-21.03,-17.35,0,*58
1517493873.81,685,9.81,72124.3,-7.05,-21.13,-17.35,0,*58
1517493875.03,686,9.81,72126.5,-7.03,-21.03,-17.31,0,*58
1517493876.28,687,9.81,72126.0,-7.03,-20.99,-17.21,0,*5A
1517493877.54,688,9.81,72124.5,-7.03,-20.99,-17.07,0,*51
1517493878.77,689,9.81,72128.0,-7.03,-20.89,-17.07,0,*51
1517493880.02,690,9.81,72126.8,-7.05,-20.89,-17.03,0,*5B
1517493881.24,691,9.88,72128.3,-7.05,-20.89,-16.93,0,*52
1517493882.49,692,9.81,72122.0,-7.05,-20.79,-16.75,0,*56
1517493883.73,693,9.81,72122.5,-7.05,-20.53,-16.45,0,*5C
1517493884.96,694,9.81,72126.0,-7.05,-20.53,-16.45,0,*5B
1517493886.2,695,9.81,72122.3,-7.05,-20.53,-16.45,0,*5A
1517493887.44,696,9.81,72118.8,-7.05,-20.49,-16.45,0,*52
1517493888.68,697,9.81,72114.8,-7.05,-20.35,-16.41,0,*5C
1517493889.94,698,9.88,72122.3,-7.05,-20.35,-16.31,0,*54
1517493891.21,699,9.81,72108.8,-7.05,-20.19,-16.31,0,*5B
1517493892.47,700,9.81,72110.0,-7.05,-20.19,-16.31,0,*5A
1517493893.73,701,9.88,72110.8,-7.05,-20.19,-16.31,0,*5B
1517493894.95,702,9.81,72108.3,-7.03,-20.05,-16.27,0,*54
1517493896.17,703,9.81,72108.8,-7.03,-19.91,-16.31,0,*55
1517493897.41,704,9.81,72112.3,-7.05,-19.91,-16.31,0,*54
1517493898.66,705,9.81,72118.0,-7.05,-19.75,-16.27,0,*58
1517493899.93,706,9.81,72116.0,-7.05,-19.57,-16.13,0,*5C
1517493901.21,707,9.81,72116.0,-7.05,-19.41,-16.17,0,*5E
1517493902.48,708,9.81,72112.8,-7.05,-19.57,-16.31,0,*52
1517493903.76,709,9.81,72114.3,-7.05,-19.27,-16.27,0,*53
1517493905.04,710,9.81,72112.3,-7.05,-19.27,-16.27,0,*5B
1517493906.27,711,9.81,72118.5,-7.03,-19.17,-16.31,0,*58
1517493907.5,712,9.81,72120.5,-7.03,-19.13,-16.31,0,*5F
1517493908.71,713,9.81,72116.8,-7.05,-19.03,-16.45,0,*5A
1517493909.94,714,9.81,72118.8,-7.05,-19.17,-16.59,0,*55
1517493911.17,715,9.81,72114.3,-7.05,-19.17,-16.59,0,*54
1517493912.4,716,9.81,72114.0,-7.05,-19.17,-16.75,0,*59
1517493913.66,717,9.81,72112.5,-7.05,-19.27,-16.83,0,*52
1517493914.87,718,9.81,72116.3,-7.03,-19.13,-16.75,0,*55
1517493916.07,719,9.81,72118.5,-7.03,-19.17,-16.83,0,*59
1517493917.27,720,9.81,72120.3,-7.03,-19.17,-16.89,0,*59
1517493918.52,721,9.81,72120.3,-7.05,-19.27,-16.93,0,*56
1517493919.81,722,9.81,72120.3,-7.05,-19.31,-17.07,0,*5E
1517493921.08,723,9.88,72116.0,-7.05,-19.57,-17.17,0,*5E
1517493922.33,724,9.81,72112.0,-7.03,-19.41,-17.03,0,*5D
1517493923.59,725,9.81,72116.3,-7.03,-19.57,-17.07,0,*5F
1517493924.81,726,9.81,72118.0,-7.03,-19.47,-17.17,0,*5C
1517493926.04,727,9.81,72112.8,-7.03,-19.71,-17.07,0,*59
1517493927.3,728,9.81,72112.3,-7.05,-19.75,-17.07,0,*54
1517493928.52,729,9.81,72112.0,-7.03,-19.75,-17.07,0,*53
1517493929.77,730,9.81,72114.8,-7.03,-19.85,-17.03,0,*50
1517493931.02,731,9.81,72112.3,-7.03,-19.85,-17.03,0,*51
1517493932.24,732,9.81,72112.5,-7.03,-19.91,-17.03,0,*57
1517493933.48,733,9.81,72112.5,-7.05,-19.85,-16.93,0,*5D
1517493934.72,734,9.81,72114.3,-7.05,-19.85,-16.83,0,*5B
1517493935.96,735,9.81,72116.3,-7.05,-19.75,-16.69,0,*51
1517493937.21,736,9.81,72118.3,-7.05,-19.75,-16.69,0,*52
1517493938.44,737,9.88,72120.0,-7.03,-19.61,-16.55,0,*5F
1517493939.66,738,9.81,72112.8,-7.05,-19.71,-16.55,0,*57
1517493940.88,739,9.88,72114.0,-7.03,-19.61,-16.45,0,*50
1517493942.1,740,9.81,72112.3,-7.05,-19.47,-16.45,0,*5C
1517493943.37,741,9.81,72114.5,-7.05,-19.41,-16.31,0,*58
1517493944.63,742,9.81,72112.8,-7.05,-19.41,-16.31,0,*5B
1517493945.92,743,9.81,72110.8,-7.05,-19.27,-16.17,0,*5E
1517493947.15,744,9.81,72110.3,-7.03,-19.17,-16.17,0,*5C
1517493948.4,745,9.81,72112.8,-7.05,-19.03,-16.13,0,*5A
1517493949.62,746,9.81,72114.8,-7.03,-19.03,-16.17,0,*5B
1517493950.82,747,9.81,72118.8,-7.03,-19.03,-16.03,0,*5F
1517493952.03,748,9.81,72118.0,-7.03,-18.89,-15.99,0,*53
1517493953.29,749,9.81,72116.8,-7.05,-18.83,-15.81,0,*57
1517493954.49,750,9.81,72116.8,-7.03,-18.79,-15.71,0,*53
1517493955.69,751,9.81,72122.0,-7.03,-18.69,-15.71,0,*53
1517493956.91,752,9.81,72122.8,-7.03,-18.55,-15.71,0,*5F
1517493958.14,753,9.81,72120.8,-7.03,-18.55,-15.71,0,*5E
1517493959.34,754,9.81,72122.3,-7.03,-18.49,-15.71,0,*54
1517493960.54,755,9.81,72126.0,-6.99,-18.49,-15.75,0,*53
1517493961.76,756,9.81,72124.0,-7.01,-18.45,-15.75,0,*5C
1517493962.99,757,9.81,72124.5,-7.01,-18.45,-15.75,0,*5D
1517493964.2,758,9.81,72120.3,-7.01,-18.45,-15.67,0,*51
1517493965.43,759,9.81,72124.5,-7.01,-18.45,-15.75,0,*53
1517493966.68,760,9.81,72124.0,-7.01,-18.35,-15.75,0,*5E
1517493967.96,761,9.81,72126.8,-7.01,-18.31,-15.81,0,*50
1517493969.21,762,9.81,72120.5,-7.01,-18.21,-15.81,0,*52
1517493970.46,763,9.81,72122.8,-7.01,-18.21,-15.81,0,*53
1517493971.71,764,9.81,72122.3,-7.01,-18.17,-15.81,0,*51
1517493972.95,765,9.81,72122.3,-7.01,-18.17,-15.89,0,*58
1517493974.2,766,9.81,72126.0,-6.99,-18.01,-15.89,0,*5C
1517493975.47,767,9.81,72126.0,-7.01,-18.01,-15.89,0,*5D
1517493976.72,768,9.81,72126.0,-7.01,-18.01,-15.95,0,*5F
1517493977.99,769,9.81,72124.8,-7.01,-18.01,-15.89,0,*53
1517493979.22,770,9.81,72120.5,-6.99,-17.87,-15.81,0,*52
1517493980.45,771,9.81,72118.8,-6.99,-17.83,-15.81,0,*57
1517493981.67,772,9.81,72120.3,-6.99,-17.73,-15.81,0,*5B
1517493982.9,773,9.81,72122.0,-7.01,-17.73,-15.75,0,*51
1517493984.14,774,9.81,72118.0,-7.01,-17.83,-15.89,0,*5A
1517493985.39,775,9.81,72118.8,-7.01,-17.73,-15.89,0,*54
1517493986.66,776,9.81,72116.0,-7.01,-17.59,-15.89,0,*5F
1517493987.91,777,9.81,72114.8,-6.99,-17.45,-15.81,0,*5B
1517493989.13,778,9.81,72116.5,-6.99,-17.55,-15.67,0,*5D
1517493990.37,779,9.81,72114.8,-7.01,-17.55,-15.67,0,*5C
1517493991.62,780,9.81,72112.3,-7.01,-17.41,-15.67,0,*5F
1517493992.84,781,9.81,72116.5,-6.95,-17.25,-15.71,0,*57
1517493994.1,782,9.81,72118.0,-6.99,-17.45,-15.81,0,*51
1517493995.29,783,9.81,72120.8,-6.99,-17.31,-15.67,0,*5B
1517493996.52,784,9.81,72116.8,-6.99,-17.41,-15.75,0,*58
1517493997.77,785,9.81,72120.5,-7.01,-17.25,-15.75,0,*5B
1517493999.02,786,9.81,72122.0,-6.99,-17.25,-15.81,0,*53
1517494000.27,787,9.81,72122.3,-6.99,-17.25,-15.81,0,*52
1517494001.53,788,9.81,72120.0,-6.99,-17.41,-16.09,0,*5C
1517494002.78,789,9.81,72118.3,-6.99,-17.45,-16.13,0,*52
1517494004.01,790,9.81,72116.5,-6.99,-17.41,-15.99,0,*5F
1517494005.2,791,9.81,72126.3,-6.99,-17.31,-15.95,0,*55
1517494006.42,792,9.81,72118.5,-6.99,-17.25,-15.99,0,*5F
1517494007.67,793,9.81,72122.3,-6.99,-17.55,-16.13,0,*58
1517494008.94,794,9.81,72122.0,-7.01,-17.45,-16.13,0,*5E
1517494010.17,795,9.81,72126.0,-6.99,-17.45,-15.95,0,*52
1517494011.39,796,9.81,72124.3,-6.99,-17.55,-15.95,0,*50
1517494012.64,797,9.81,72118.0,-7.01,-17.59,-15.99,0,*51
1517494013.91,798,9.81,72120.5,-7.01,-17.59,-15.81,0,*57
1517494015.14,799,9.81,72124.8,-6.99,-17.45,-15.53,0,*54
1517494016.37,800,9.81,72122.5,-7.01,-17.31,-15.25,0,*59
1517494017.62,801,9.81,72122.5,-6.99,-17.25,-14.93,0,*51
1517494018.84,802,9.81,72118.5,-6.99,-17.03,-14.61,0,*5B
1517494020.06,803,9.81,72120.3,-7.01,-16.55,-14.11,0,*5F
1517494021.28,804,9.81,72120.3,-6.99,-16.37,-13.87,0,*54
1517494022.49,805,9.81,72116.8,-6.99,-16.09,-13.47,0,*54
1517494023.69,806,9.81,72116.5,-6.95,-15.49,-13.11,0,*5F
1517494024.9,807,9.81,72118.0,-6.99,-15.07,-13.01,0,*59
1517494026.09,808,9.81,72116.8,-6.99,-14.65,-12.93,0,*59
1517494027.29,809,9.81,72118.8,-6.95,-14.33,-12.89,0,*5C
1517494028.52,810,9.81,72116.5,-6.95,-14.05,-12.89,0,*51
1517494029.74,811,9.81,72114.8,-6.99,-13.79,-12.93,0,*5B
1517494030.96,812,9.81,72114.8,-6.99,-13.79,-13.07,0,*54
1517494032.19,813,9.81,72112.5,-6.99,-13.87,-13.19,0,*5B
1517494033.41,814,9.81,72118.3,-6.95,-13.69,-13.29,0,*53
1517494034.65,815,9.81,72112.5,-7.01,-13.87,-13.51,0,*51
1517494035.91,816,9.81,72116.3,-6.95,-13.97,-13.61,0,*5C
1517494037.15,817,9.81,72118.8,-7.01,-14.11,-13.79,0,*51
1517494038.34,818,9.81,72120.0,-6.99,-14.37,-13.93,0,*5E
1517494039.57,819,9.81,72122.0,-6.99,-14.47,-14.11,0,*55
1517494040.83,820,9.81,72122.5,-6.99,-14.47,-14.01,0,*5E
1517494042.05,821,9.81,72118.3,-6.99,-14.51,-14.11,0,*59
1517494043.23,822,9.81,72118.0,-6.99,-14.61,-14.11,0,*59
1517494044.45,823,9.81,72118.8,-6.99,-14.75,-14.33,0,*5D
1517494045.7,824,9.81,72120.0,-6.99,-14.93,-14.47,0,*51
1517494046.91,825,9.81,72124.0,-6.99,-14.93,-14.33,0,*53
1517494048.16,826,9.81,72122.5,-6.99,-14.93,-14.47,0,*53
1517494049.38,827,9.81,72124.0,-6.99,-14.75,-14.61,0,*5E
1517494050.59,828,9.81,72126.5,-6.99,-14.65,-15.01,0,*57
1517494051.81,829,9.81,72126.8,-6.99,-15.21,-15.49,0,*5B
1517494053.01,830,9.81,72122.5,-6.95,-15.63,-15.75,0,*56
1517494054.26,831,9.81,72118.3,-6.99,-16.23,-16.51,0,*59
1517494055.5,832,9.81,72122.3,-7.01,-16.69,-16.83,0,*5B
1517494056.73,833,9.81,72118.8,-6.99,-17.17,-16.97,0,*57
1517494057.97,834,9.81,72120.0,-7.01,-17.55,-16.89,0,*59
1517494059.16,835,9.81,72122.8,-6.99,-17.73,-16.79,0,*53
1517494060.39,836,9.81,72122.8,-6.99,-17.93,-16.79,0,*5E
1517494061.61,837,9.81,72120.3,-7.01,-18.07,-16.83,0,*58
1517494062.83,838,9.81,72118.3,-7.01,-18.21,-16.83,0,*53
1517494064.03,839,9.81,72118.8,-6.99,-18.49,-16.97,0,*59
1517494065.25,840,9.81,72120.3,-7.01,-18.73,-16.89,0,*51
1517494066.47,841,9.81,72126.0,-7.01,-18.73,-16.83,0,*5A
1517494067.71,842,9.81,72122.8,-7.01,-18.93,-16.97,0,*52
1517494068.94,843,9.81,72120.0,-6.99,-18.93,-16.97,0,*53
1517494070.16,844,9.81,72128.0,-7.01,-19.07,-16.89,0,*57
1517494071.38,845,9.81,72120.3,-6.99,-19.23,-16.97,0,*5F
1517494072.66,846,9.81,72114.8,-7.01,-19.27,-17.03,0,*54
1517494073.91,847,9.81,72116.0,-7.01,-19.41,-16.89,0,*56
1517494075.13,848,9.81,72122.8,-7.01,-19.37,-16.83,0,*52
1517494076.37,849,9.81,72116.3,-7.01,-19.41,-16.89,0,*58
1517494077.62,850,9.81,72118.0,-7.01,-19.65,-16.97,0,*59
1517494078.84,851,9.81,72118.5,-7.01,-19.71,-16.89,0,*52
1517494080.11,852,9.81,72118.0,-7.01,-19.65,-16.69,0,*5A
1517494081.39,853,9.81,72118.8,-7.01,-19.65,-16.65,0,*57
1517494082.61,854,9.81,72116.0,-7.03,-19.75,-16.69,0,*5F
1517494083.83,855,9.81,72114.5,-7.03,-19.85,-16.55,0,*5E
1517494085.02,856,9.81,72114.8,-7.03,-19.75,-16.45,0,*53
1517494086.22,857,9.81,72112.5,-7.03,-19.75,-16.41,0,*56
1517494087.47,858,9.81,72110.5,-7.03,-19.61,-16.27,0,*5C
1517494088.72,859,9.81,72120.3,-7.03,-19.61,-16.13,0,*5A
1517494089.98,860,9.81,72116.0,-7.03,-19.61,-16.17,0,*54
1517494091.23,861,9.81,72110.5,-7.05,-19.61,-16.03,0,*56
1517494092.48,862,9.81,72116.8,-7.05,-19.57,-15.95,0,*5C
1517494093.68,863,9.81,72116.3,-7.03,-19.47,-15.71,0,*50
1517494094.92,864,9.81,72116.3,-7.05,-19.41,-15.67,0,*50
1517494096.15,865,9.81,72116.3,-7.03,-19.31,-15.67,0,*50
1517494097.42,866,9.81,72118.5,-7.05,-19.31,-15.57,0,*56
1517494098.62,867,9.81,72118.3,-7.03,-19.17,-15.67,0,*56
1517494099.84,868,9.81,72116.8,-7.05,-19.17,-15.67,0,*5F
1517494101.07,869,9.81,72122.3,-7.03,-19.03,-15.57,0,*5E
1517494102.31,870,9.81,72120.8,-7.03,-18.89,-15.43,0,*50
1517494103.52,871,9.81,72122.5,-7.03,-18.65,-15.29,0,*5F
1517494104.75,872,9.81,72118.3,-7.03,-18.55,-15.25,0,*53
1517494105.97,873,9.81,72122.8,-7.05,-18.49,-15.15,0,*5A
1517494107.23,874,9.81,72126.0,-7.05,-18.35,-15.29,0,*59
1517494108.48,875,9.81,72126.0,-7.03,-18.35,-15.39,0,*5F
1517494109.69,876,9.81,72126.5,-7.03,-18.41,-15.53,0,*53
1517494110.92,877,9.81,72126.8,-7.03,-18.35,-15.53,0,*51
1517494112.17,878,9.81,72126.3,-7.05,-18.35,-15.53,0,*58
1517494113.42,879,9.81,72122.5,-7.03,-18.35,-15.57,0,*5B
1517494114.64,880,9.81,72122.3,-7.03,-18.35,-15.67,0,*5E
1517494115.89,881,9.81,72120.8,-7.05,-18.25,-15.85,0,*54
1517494117.11,882,9.81,72120.5,-7.05,-18.41,-15.99,0,*58
1517494118.31,883,9.81,72126.0,-7.03,-18.25,-15.99,0,*5D
1517494119.53,884,9.81,72120.0,-7.03,-18.41,-16.17,0,*5D